Regional Weather Roundup
Issued by NWS

Home | Current Version | Previous Version | Text Only | Print | Product List | Glossary Off
Versions: 1 2 3 4 5 6 7 8 9 10 11 12 13 14 15 16 17 18 19 20 21 22 23 24 25 26 27 28 29 30 31 32 33 34 35 36 37 38 39 40 41 42 43 44 45 46 47 48 49 50

000
ASUS43 KOAX 171710
RWRNE

WEATHER ROUNDUP FOR NEBRASKA
NATIONAL WEATHER SERVICE OMAHA NE
1100 AM CST SAT FEB 17 2018

NOTES: SATELLITE DATA IS BEING USED TO AUGMENT CLOUD COVER ABOVE
       12000 FEET.
       "FAIR" INDICATES FEW OR NO CLOUDS BELOW 12,000 FEET WITH NO
       SIGNIFICANT WEATHER AND/OR OBSTRUCTIONS TO VISIBILITY.


NEZ001>004-019>022-054>056-171800-
NEBRASKA PANHANDLE

CITY           SKY/WX    TMP DP  RH WIND       PRES   REMARKS
SCOTTSBLUFF    SUNNY     40  16  37 NW16      30.07R WCI  31
ALLIANCE       MOSUNNY   38  17  42 W17       30.04R WCI  28
CHADRON        MOSUNNY   31  21  66 W17       30.06R WCI  19
GORDON         FAIR      31  18  58 W9        30.04R WCI  23
KIMBALL        MOSUNNY   41  12  31 NW23G37   30.07S
SIDNEY         SUNNY     43  14  31 NW29G40   30.07R
$$

NEZ057>060-069>072-079>082-171800-
SOUTHWEST NEBRASKA

CITY           SKY/WX    TMP DP  RH WIND       PRES   REMARKS
NORTH PLATTE   SUNNY     41  25  53 NW16      30.05R
IMPERIAL       SUNNY     44  20  38 NW22G30   30.07R
LEXINGTON      SUNNY     38  26  60 W8        30.06R WCI  32
MCCOOK         SUNNY     41  24  51 NW16      30.08R
OGALLALA       SUNNY     43  19  38 NW18G28   30.07R
$$

NEZ005>010-023>029-035>040-094-171800-
NORTH CENTRAL NEBRASKA

CITY           SKY/WX    TMP DP  RH WIND       PRES   REMARKS
VALENTINE      SUNNY     37  23  56 NW21G29   30.02R WCI  26
AINSWORTH      SUNNY     35  23  62 NW18G26   30.03R WCI  25
BROKEN BOW     SUNNY     39  23  52 NW13      30.01R WCI  31
O`NEILL        SUNNY     38  25  58 NW20      30.01R WCI  28
ORD            SUNNY     41  24  51 NW8G18    30.01R
THEDFORD       SUNNY     41  22  45 NW23G31   30.02R
$$

NEZ041-046>049-061>064-073>077-083>087-171800-
SOUTH CENTRAL NEBRASKA

CITY           SKY/WX    TMP DP  RH WIND       PRES   REMARKS
GRAND ISLAND   SUNNY     41  24  51 N12       30.03R
AURORA         SUNNY     41  24  50 NW14      30.02R
HASTINGS       SUNNY     42  24  49 N13       30.04R
HEBRON         SUNNY     46  23  40 NW15      30.04R
HOLDREGE       SUNNY     41  25  51 NW12      30.06R
KEARNEY        SUNNY     40  22  48 NW13      30.05R WCI  32
YORK           SUNNY     41  27  56 NW15      30.03R
$$

NEZ011>018-030>034-042>045-171800-
NORTHEAST NEBRASKA

CITY           SKY/WX    TMP DP  RH WIND       PRES   REMARKS
NORFOLK        SUNNY     38  26  62 NW13      29.97R WCI  30
ALBION         SUNNY     40  25  54 NW12      30.00R WCI  33
BLAIR          SUNNY     38  25  60 NW13G18   29.97R WCI  30
COLUMBUS       SUNNY     37  28  70 NW14      30.01R WCI  28
FREMONT        SUNNY     39  26  59 NW15      30.00R WCI  31
TEKAMAH        SUNNY     36  26  67 NW17      29.99R WCI  26
WAYNE          SUNNY     35  26  72 W13       29.98R WCI  26
$$

NEZ050>053-065>068-078-088>093-171800-
SOUTHEAST NEBRASKA

CITY           SKY/WX    TMP DP  RH WIND       PRES   REMARKS
LINCOLN        SUNNY     42  25  50 N13       30.02R
OMAHA EPPLEY   MOSUNNY   40  23  50 NW10      29.98R WCI  33
BEATRICE       SUNNY     44  27  51 NW14G22   30.01R
FALLS CITY     SUNNY     42  21  43 NW18G29   29.99R
NEBRASKA CITY  SUNNY     40  26  56 N17       29.99R WCI  32
PLATTSMOUTH    SUNNY     38  25  59 NW15      29.98R WCI  29
$$

NEZ044-045-051>053-067-171800-
OMAHA AREA

CITY           SKY/WX    TMP DP  RH WIND       PRES   REMARKS
OMAHA EPPLEY   MOSUNNY   40  23  50 NW10      29.98R WCI  33
BLAIR          SUNNY     38  25  60 NW13G18   29.97R WCI  30
FREMONT        SUNNY     39  26  59 NW15      30.00R WCI  31
MILLARD        SUNNY     40  24  54 N8        29.99R WCI  34
OFFUTT AFB     SUNNY     40  23  49 NW12      29.98R WCI  33
PLATTSMOUTH    SUNNY     38  25  59 NW15      29.98R WCI  29
WAHOO          FAIR      38  26  61 NW13      29.99R WCI  30
$$



USA.gov is the U.S. government's official web portal to all federal, state and local government web resources and services.